Location: Casteau
(50.5142°N, 4.0161°E)
Time: 01:32:22
(UTC+00:00)

Explorer 11/Cluster Stage 4 - Pass Details

Date: 03 August 2021
Orbit: 467 x 1257 km, 28.8° (Epoch: 18 September)

Event Time Altitude Azimuth Distance (km) Brightness Sun altitude
Rises 07:41:56 0° 206° (SSW) 3,994 10.1 31.0°
Reaches altitude 10° 07:49:04 10° 163° (SSE) 3,187 10.2 32.1°
Maximum altitude 07:49:14 10° 161° (SSE) 3,189 10.2 32.2°
Drops below altitude 10° 07:49:22 10° 160° (SSE) 3,191 10.2 32.2°
Sets 07:56:48 0° 118° (ESE) 4,191 11.3 33.3°
